When you browse on this site, cookies collect data to enhance your experience and personalize the content and advertising you see.
Visit our Privacy Policy to learn more. By continuing to use the site, you agree to this use of cookies and data.
  • In Sweden
  • List of Countries
  • For 7 days
  • Water Temperature
  • Satellite Maps
  • Weather Map
  • Weather Widgets
  • user-avatar
    Login

    Hourly Weather Balchik

    Today, 19 January, Saturday

    Time Temperature Precipitation Wind Pressure Humidity
    00:00 +3°C° 0 mm 2 mps 738 mmHg 75%
    01:00 +3°C° 0 mm 2 mps 738 mmHg 73%
    02:00 +2°C° 0 mm 3 mps 738 mmHg 70%
    03:00 +2°C° 0 mm 3 mps 738 mmHg 72%
    04:00 +2°C° 0 mm 3 mps 739 mmHg 74%
    05:00 +1°C° 0 mm 3 mps 739 mmHg 76%
    06:00 +1°C° 0 mm 3 mps 740 mmHg 80%
    07:00 0°C° 0 mm 3 mps 740 mmHg 84%
    08:00 -1°C° 0 mm 3 mps 741 mmHg 89%
    09:00 0°C° 0 mm 3 mps 741 mmHg 86%
    10:00 0°C° 0 mm 4 mps 742 mmHg 84%
    11:00 +1°C° 0 mm 4 mps 742 mmHg 81%
    12:00 +1°C° 0 mm 4 mps 742 mmHg 79%
    13:00 +3°C° 0 mm 4 mps 743 mmHg 77%
    14:00 +3°C° 0 mm 4 mps 743 mmHg 75%
    15:00 +3°C° 0 mm 4 mps 743 mmHg 78%
    16:00 +1°C° 0 mm 4 mps 743 mmHg 81%
    17:00 +2°C° 0 mm 3 mps 743 mmHg 84%
    18:00 +2°C° 0.1 mm 3 mps 743 mmHg 85%
    19:00 0°C° 0.1 mm 4 mps 743 mmHg 87%
    20:00 0°C° 0.1 mm 4 mps 743 mmHg 89%
    21:00 0°C° 0.2 mm 4 mps 743 mmHg 90%
    22:00 +1°C° 0.2 mm 3 mps 743 mmHg 91%
    23:00 +1°C° 0.2 mm 3 mps 743 mmHg 92%

    Tomorrow, 20 January, Sunday

    Time Temperature Precipitation Wind Pressure Humidity
    00:00 +2°C° 0.2 mm 3 mps 743 mmHg 93%
    01:00 +2°C° 0.2 mm 3 mps 743 mmHg 94%
    02:00 +2°C° 0.2 mm 3 mps 742 mmHg 94%
    03:00 +1°C° 0.1 mm 4 mps 742 mmHg 95%
    04:00 +1°C° 0.1 mm 4 mps 742 mmHg 95%
    05:00 +1°C° 0.1 mm 4 mps 741 mmHg 95%
    06:00 +1°C° 0.3 mm 4 mps 741 mmHg 96%
    07:00 +1°C° 0.3 mm 4 mps 741 mmHg 96%
    08:00 +3°C° 0.3 mm 4 mps 741 mmHg 96%
    09:00 +3°C° 0.1 mm 4 mps 741 mmHg 96%
    10:00 +3°C° 0.1 mm 4 mps 740 mmHg 96%
    11:00 +4°C° 0.1 mm 4 mps 740 mmHg 96%
    12:00 +4°C° 0.1 mm 4 mps 740 mmHg 96%
    13:00 +5°C° 0.1 mm 4 mps 739 mmHg 95%
    14:00 +6°C° 0.1 mm 4 mps 739 mmHg 95%
    15:00 +6°C° 0.1 mm 4 mps 739 mmHg 96%
    16:00 +6°C° 0.1 mm 4 mps 738 mmHg 97%
    17:00 +5°C° 0.1 mm 4 mps 738 mmHg 97%
    18:00 +7°C° 0.2 mm 3 mps 738 mmHg 97%
    19:00 +7°C° 0.2 mm 3 mps 738 mmHg 98%
    20:00 +7°C° 0.2 mm 3 mps 738 mmHg 98%
    21:00 +5°C° 0.3 mm 3 mps 738 mmHg 97%
    22:00 +5°C° 0.3 mm 3 mps 738 mmHg 97%
    23:00 +5°C° 0.3 mm 3 mps 738 mmHg 97%

    Day after tomorrow, 21 January, Monday

    Time Temperature Precipitation Wind Pressure Humidity
    00:00 +5°C° 0.1 mm 3 mps 738 mmHg 96%
    01:00 +4°C° 0.1 mm 3 mps 738 mmHg 95%
    02:00 +3°C° 0.1 mm 4 mps 738 mmHg 94%
    03:00 +3°C° 0 mm 4 mps 738 mmHg 93%
    04:00 +1°C° 0 mm 5 mps 738 mmHg 92%
    05:00 0°C° 0 mm 5 mps 738 mmHg 91%
    06:00 0°C° 0 mm 5 mps 738 mmHg 91%
    07:00 0°C° 0 mm 5 mps 739 mmHg 91%
    08:00 -1°C° 0 mm 5 mps 739 mmHg 91%
    09:00 0°C° 0 mm 5 mps 740 mmHg 89%
    10:00 0°C° 0 mm 5 mps 740 mmHg 87%
    11:00 +1°C° 0 mm 5 mps 741 mmHg 84%
    12:00 +1°C° 0 mm 4 mps 741 mmHg 81%
    13:00 +1°C° 0 mm 4 mps 741 mmHg 78%
    14:00 +3°C° 0 mm 4 mps 741 mmHg 75%
    15:00 +1°C° 0 mm 4 mps 741 mmHg 77%
    16:00 +1°C° 0 mm 3 mps 741 mmHg 80%
    17:00 0°C° 0 mm 3 mps 741 mmHg 82%
    18:00 +1°C° 0 mm 2 mps 742 mmHg 85%
    19:00 -1°C° 0 mm 2 mps 742 mmHg 87%
    20:00 -2°C° 0 mm 2 mps 742 mmHg 90%
    21:00 -2°C° 0 mm 2 mps 742 mmHg 90%
    22:00 -2°C° 0 mm 2 mps 742 mmHg 91%
    23:00 -2°C° 0 mm 2 mps 742 mmHg 91%

    22 January, Tuesday

    Time Temperature Precipitation Wind Pressure Humidity
    00:00 -2°C° 0 mm 2 mps 742 mmHg 91%
    01:00 -2°C° 0 mm 2 mps 742 mmHg 90%
    02:00 0°C° 0 mm 1 mps 742 mmHg 90%
    03:00 -2°C° 0 mm 2 mps 741 mmHg 90%
    04:00 -2°C° 0 mm 2 mps 741 mmHg 90%
    05:00 -2°C° 0 mm 2 mps 741 mmHg 91%
    06:00 -1°C° 0.1 mm 2 mps 741 mmHg 91%
    07:00 -1°C° 0.1 mm 3 mps 740 mmHg 91%
    08:00 0°C° 0.1 mm 3 mps 740 mmHg 91%
    09:00 -1°C° 0 mm 4 mps 740 mmHg 90%
    10:00 0°C° 0 mm 4 mps 740 mmHg 88%
    11:00 +1°C° 0 mm 5 mps 739 mmHg 87%
    12:00 +1°C° 0.1 mm 4 mps 739 mmHg 88%
    13:00 +3°C° 0.1 mm 4 mps 738 mmHg 90%
    14:00 +3°C° 0.1 mm 4 mps 737 mmHg 91%
    15:00 +3°C° 0.1 mm 4 mps 737 mmHg 93%
    16:00 +3°C° 0.1 mm 4 mps 736 mmHg 95%
    17:00 +2°C° 0.1 mm 5 mps 736 mmHg 96%
    18:00 +2°C° 0.1 mm 5 mps 735 mmHg 96%
    19:00 +3°C° 0.1 mm 5 mps 735 mmHg 96%
    20:00 +3°C° 0.1 mm 5 mps 734 mmHg 96%
    21:00 +3°C° 0.1 mm 5 mps 734 mmHg 96%
    22:00 +5°C° 0.1 mm 5 mps 734 mmHg 96%
    23:00 +5°C° 0.1 mm 5 mps 733 mmHg 96%

    23 January, Wednesday

    Time Temperature Precipitation Wind Pressure Humidity
    00:00 +5°C° 0 mm 5 mps 733 mmHg 96%
    01:00 +5°C° 0 mm 4 mps 732 mmHg 96%
    02:00 +5°C° 0 mm 4 mps 732 mmHg 96%
    03:00 +5°C° 0 mm 4 mps 731 mmHg 95%
    04:00 +5°C° 0 mm 4 mps 731 mmHg 94%
    05:00 +4°C° 0 mm 4 mps 730 mmHg 93%
    06:00 +5°C° 0.8 mm 4 mps 730 mmHg 94%
    07:00 +5°C° 0.8 mm 4 mps 730 mmHg 95%
    08:00 +5°C° 0.8 mm 4 mps 730 mmHg 97%
    09:00 +6°C° 0.5 mm 5 mps 730 mmHg 94%
    10:00 +7°C° 0.5 mm 6 mps 730 mmHg 92%
    11:00 +8°C° 0.5 mm 6 mps 730 mmHg 90%
    12:00 +9°C° 0.1 mm 6 mps 730 mmHg 83%
    13:00 +10°C° 0.1 mm 6 mps 730 mmHg 76%
    14:00 +11°C° 0.1 mm 6 mps 730 mmHg 69%
    15:00 +10°C° 0.3 mm 5 mps 730 mmHg 75%
    16:00 +8°C° 0.3 mm 4 mps 730 mmHg 81%
    17:00 +8°C° 0.3 mm 3 mps 730 mmHg 87%
    18:00 +7°C° 0 mm 3 mps 730 mmHg 89%
    19:00 +5°C° 0 mm 3 mps 731 mmHg 92%
    20:00 +4°C° 0 mm 3 mps 731 mmHg 94%
    21:00 +3°C° 0.1 mm 3 mps 731 mmHg 94%
    22:00 +3°C° 0.1 mm 3 mps 732 mmHg 94%
    23:00 +1°C° 0.1 mm 4 mps 732 mmHg 93%

    24 January, Thursday

    Time Temperature Precipitation Wind Pressure Humidity
    00:00 +1°C° 0.8 mm 4 mps 732 mmHg 93%
    01:00 +1°C° 0.8 mm 5 mps 731 mmHg 93%
    02:00 0°C° 0.8 mm 5 mps 731 mmHg 93%
    03:00 0°C° 3.4 mm 5 mps 731 mmHg 93%
    04:00 -1°C° 3.4 mm 6 mps 731 mmHg 94%
    05:00 -1°C° 3.4 mm 6 mps 731 mmHg 94%
    06:00 -1°C° 1.3 mm 7 mps 731 mmHg 94%
    07:00 -1°C° 1.3 mm 7 mps 731 mmHg 95%
    08:00 0°C° 1.3 mm 7 mps 731 mmHg 95%
    09:00 0°C° 0.9 mm 7 mps 731 mmHg 95%
    10:00 0°C° 0.9 mm 7 mps 731 mmHg 95%
    11:00 0°C° 0.9 mm 7 mps 731 mmHg 95%
    12:00 0°C° 0.4 mm 7 mps 731 mmHg 95%
    13:00 +2°C° 0.4 mm 7 mps 730 mmHg 96%
    14:00 +2°C° 0.4 mm 7 mps 729 mmHg 96%
    15:00 +2°C° 0.8 mm 7 mps 729 mmHg 96%
    16:00 +2°C° 0.8 mm 7 mps 729 mmHg 96%
    17:00 +3°C° 0.8 mm 7 mps 729 mmHg 97%
    18:00 +3°C° 1.5 mm 7 mps 729 mmHg 97%
    19:00 +3°C° 1.5 mm 7 mps 729 mmHg 97%
    20:00 +3°C° 1.5 mm 7 mps 729 mmHg 97%
    21:00 +2°C° 1.2 mm 6 mps 729 mmHg 97%
    22:00 +2°C° 1.2 mm 6 mps 729 mmHg 97%
    23:00 +1°C° 1.2 mm 5 mps 729 mmHg 97%
    Show more